Weather History for Buffalo, NY

Change the Weather History Date:

Wednesday, December 29, 2010

  Actual Average Record
Temperature  
Mean Temperature 24 °F 27 °F  
Max Temperature 29 °F 33 °F 61 °F (1984)
Min Temperature 19 °F 21 °F -7 °F (1933)
Degree Days  
Heating Degree Days 41 38  
Month to date heating degree days 1144 1005  
Since 1 July heating degree days 2418 2338  
Cooling Degree Days 0 0  
Month to date cooling degree days 0 0  
Year to date cooling degree days 744 544  
Moisture  
Dew Point 22 °F    
Average Humidity 80    
Maximum Humidity 85    
Minimum Humidity 75    
Precipitation  
Precipitation T in 0.12 in 1.36 in (1990)
Month to date precipitation 2.66 3.64  
Year to date precipitation 36.66 40.23  
Snow  
Snow T in 1.00 in 12.20 in (1915)
Month to date snowfall 32.0 25.3  
Since 1 July snowfall 33.6 34.1  
Snow Depth 4.00 in    
Sea Level Pressure  
Sea Level Pressure 30.06 in    
Wind  
Wind Speed 9 mph (SW)    
Max Wind Speed 17 mph    
Max Gust Speed 24 mph    
Visibility 6 miles    
Events Snow    
T = Trace of Precipitation, MM = Missing Value Source: NWS Daily Summary

Daily Weather History Graph

Daily Weather History Graph

Search for Another Location

Airport:

Trip Planner

Search our weather history database for the weather conditions in past years. The results will help you decide how hot, cold, wet, or windy it might be!

Date:

Astronomy

Dec. 29, 2010 Rise Set
Actual Time 7:45 AM EST 4:48 PM EST
Civil Twilight 7:13 AM EST 5:20 PM EST
Nautical Twilight 6:37 AM EST 5:56 PM EST
Astronomical Twilight 6:03 AM EST 6:31 PM EST
Moon 1:48 AM EST (12/29) 12:20 PM EST (12/29)
Length of Visible Light 10h 07m
Length of Day
9h 02m
Waning Crescent, 33% of the Moon is Illuminated
Dec 29
Waning Crescent
Jan 4
New
Jan 12
First Quarter
Jan 19
Full
Jan 26
Last Quarter

Hourly Weather History & Observations

Time (EST) Temp. Windchill Dew Point Humidity Pressure Visibility Wind Dir Wind Speed Gust Speed Precip Events Conditions
12:54 AM 27.0 °F 17.3 °F 21.0 °F 78% 30.01 in 8.0 mi West 10.4 mph - N/A   Overcast
1:54 AM 27.0 °F 18.0 °F 21.0 °F 78% 30.01 in 8.0 mi West 9.2 mph - N/A   Overcast
2:54 AM 27.0 °F 18.7 °F 21.9 °F 81% 30.02 in 7.0 mi West 8.1 mph - N/A   Overcast
3:54 AM 28.0 °F 18.6 °F 21.9 °F 78% 30.02 in 7.0 mi West 10.4 mph - N/A   Overcast
4:54 AM 28.0 °F 20.0 °F 23.0 °F 81% 30.03 in 7.0 mi West 8.1 mph - N/A   Overcast
5:41 AM 28.4 °F 20.4 °F 23.0 °F 80% 30.01 in 6.0 mi West 8.1 mph - N/A   Haze
5:54 AM 28.0 °F 20.8 °F 23.0 °F 81% 30.04 in 6.0 mi West 6.9 mph - N/A   Haze
6:54 AM 28.9 °F 21.9 °F 24.1 °F 82% 30.04 in 6.0 mi WSW 6.9 mph - N/A   Haze
7:54 AM 28.4 °F 17.5 °F 23.0 °F 80% 30.02 in 7.0 mi SW 13.8 mph 21.9 mph N/A   Overcast
8:54 AM 28.0 °F 17.5 °F 23.0 °F 81% 30.07 in 6.0 mi WSW 12.7 mph 23.0 mph N/A   Haze
9:54 AM 28.0 °F 20.0 °F 23.0 °F 81% 30.08 in 4.0 mi West 8.1 mph - N/A   Haze
10:27 AM 28.4 °F 19.1 °F 24.8 °F 86% 30.05 in 4.0 mi WSW 10.4 mph - 0.00 in Snow Light Snow
10:54 AM 28.0 °F 18.6 °F 23.0 °F 81% 30.09 in 5.0 mi SW 10.4 mph - 0.00 in Snow Light Snow
11:54 AM 27.0 °F 17.3 °F 23.0 °F 85% 30.07 in 4.0 mi SW 10.4 mph - 0.00 in Snow Light Snow
12:54 PM 28.0 °F 16.5 °F 23.0 °F 81% 30.06 in 4.0 mi SW 15.0 mph - 0.00 in Snow Light Snow
1:54 PM 28.4 °F 17.5 °F 23.0 °F 80% 30.03 in 4.0 mi SW 13.8 mph - N/A Snow Light Snow
2:54 PM 28.0 °F 17.0 °F 23.0 °F 81% 30.07 in 5.0 mi SW 13.8 mph - 0.00 in Snow Light Snow
3:54 PM 28.9 °F 17.7 °F 24.1 °F 82% 30.08 in 6.0 mi SW 15.0 mph - 0.00 in   Haze
4:54 PM 28.9 °F 19.2 °F 23.0 °F 78% 30.09 in 7.0 mi SW 11.5 mph - N/A   Overcast
5:54 PM 27.0 °F 17.3 °F 21.9 °F 81% 30.09 in 9.0 mi SSW 10.4 mph - N/A   Mostly Cloudy
6:01 PM 26.6 °F 16.2 °F 21.2 °F 80% 30.06 in 8.0 mi SSW 11.5 mph - N/A   Scattered Clouds
6:54 PM 24.1 °F 15.2 °F 19.0 °F 81% 30.09 in 7.0 mi SSW 8.1 mph - N/A   Partly Cloudy
7:54 PM 24.1 °F - 19.0 °F 81% 30.11 in 6.0 mi Calm Calm - N/A   Haze
8:54 PM 21.9 °F 17.2 °F 18.0 °F 85% 30.11 in 6.0 mi SSE 3.5 mph - N/A   Partly Cloudy
9:54 PM 21.0 °F 14.6 °F 18.0 °F 88% 30.12 in 5.0 mi SE 4.6 mph - N/A   Clear
10:54 PM 21.0 °F 14.6 °F 17.1 °F 85% 30.12 in 5.0 mi SE 4.6 mph - N/A   Clear
11:54 PM 19.0 °F 12.3 °F 16.0 °F 88% 30.13 in 5.0 mi South 4.6 mph - N/A   Clear